Change the Weather History Date:

Tuesday, August 27, 2013

  Actual Average Record
Temperature  
Mean Temperature 74 °F -  
Max Temperature 83 °F 80 °F 93 °F (2001)
Min Temperature 66 °F 62 °F 64 °F (2002)
Cooling Degree Days 10    
Growing Degree Days 24 (Base 50)    
Moisture  
Dew Point 67 °F    
Average Humidity 79    
Maximum Humidity 94    
Minimum Humidity 48    
Precipitation  
Precipitation 0.00 in 0.06 in - ()
Sea Level Pressure  
Sea Level Pressure 29.92 in    
Wind  
Wind Speed 5 mph ()    
Max Wind Speed 15 mph    
Max Gust Speed -    
Visibility 6.8 miles    
Events Rain , Thunderstorm    
Averages and records for this station are not official NWS values.
T = Trace of Precipitation, MM = Missing Value Source: Averaged Metar Reports

Daily Weather History Graph

Daily Weather History Graph

Search for Another Location

Airport or City:

Trip Planner

Search our weather history database for the weather conditions in past years. The results will help you decide how hot, cold, wet, or windy it might be!

Date:

Astronomy

Aug. 27, 2013 Rise Set
Actual Time 7:12 AM CEST 8:27 PM CEST
Civil Twilight 6:44 AM CEST 8:55 PM CEST
Nautical Twilight 6:11 AM CEST 9:28 PM CEST
Astronomical Twilight 5:36 AM CEST 10:03 PM CEST
Moon No Moon Rise 1:54 PM CEST (8/27)
Length of Visible Light 14h 10m
Length of Day
13h 15m
Waning Gibbous, 60% of the Moon is Illuminated
Aug 27
Waning Gibbous
Aug 28
Last Quarter
Sep 5
New
Sep 12
First Quarter
Sep 19
Full

Hourly Weather History & Observations

Time (CEST) Temp. Heat Index Dew Point Humidity Pressure Visibility Wind Dir Wind Speed Gust Speed Precip Events Conditions
12:00 AM 69.8 °F - 68.0 °F 94% 29.89 in 6.2 mi ENE 3.5 mph - N/A   Partly Cloudy
12:30 AM 69.8 °F - 68.0 °F 94% 29.89 in 6.2 mi ENE 8.1 mph - N/A   Scattered Clouds
1:00 AM 69.8 °F - 68.0 °F 94% 29.89 in 6.2 mi ESE 4.6 mph - N/A   Scattered Clouds
1:30 AM 71.6 °F - 68.0 °F 88% 29.89 in 6.2 mi NE 5.8 mph - N/A   Scattered Clouds
2:00 AM 70 °F - 68 °F 90% 29.89 in 9 mi East 5.8 mph - -   Partly Cloudy
2:00 AM 69.8 °F - 68.0 °F 94% 29.89 in 6.2 mi NE 6.9 mph - N/A   Scattered Clouds
2:30 AM 69.8 °F - 68.0 °F 94% 29.89 in 6.2 mi East 1.2 mph - N/A   Scattered Clouds
3:00 AM 71.6 °F - 68.0 °F 88% 29.89 in 6.2 mi Variable 1.2 mph - N/A   Scattered Clouds
3:22 AM 71.6 °F - 68.0 °F 88% 29.89 in 6.2 mi ENE 2.3 mph - N/A Thunderstorm Thunderstorm
3:30 AM 71.6 °F - 68.0 °F 88% 29.89 in 6.2 mi Calm Calm - N/A Thunderstorm Thunderstorm
3:51 AM 71.6 °F - 68.0 °F 88% 29.89 in 5.0 mi Variable 2.3 mph - N/A Rain , Thunderstorm Thunderstorms and Rain
4:00 AM 71.6 °F - 68.0 °F 88% 29.89 in 5.0 mi Variable 1.2 mph - N/A Rain , Thunderstorm Heavy Thunderstorms and Rain
4:30 AM 69.8 °F - 68.0 °F 94% 29.89 in 5.0 mi Variable 2.3 mph - N/A Rain , Thunderstorm Thunderstorms and Rain
4:35 AM 69.8 °F - 68.0 °F 94% 29.89 in 2.5 mi WNW 1.2 mph - N/A Rain , Thunderstorm Heavy Thunderstorms and Rain
5:00 AM 69.8 °F - 68.0 °F 94% 29.89 in 1.2 mi NNW 6.9 mph - N/A Rain , Thunderstorm Heavy Thunderstorms and Rain
5:12 AM 69.8 °F - 68.0 °F 94% 29.89 in 2.5 mi NNW 8.1 mph - N/A Rain , Thunderstorm Thunderstorms and Rain
5:30 AM 66.2 °F - 64.4 °F 94% 29.86 in 5.6 mi NW 5.8 mph - N/A Thunderstorm Thunderstorm
6:00 AM 68.0 °F - 66.2 °F 94% 29.89 in 5.6 mi North 4.6 mph - N/A Thunderstorm Thunderstorm
6:30 AM 68.0 °F - 66.2 °F 94% 29.89 in 6.2 mi NE 8.1 mph - N/A Rain Light Rain
7:00 AM 69.8 °F - 66.2 °F 88% 29.92 in 6.2 mi ENE 4.6 mph - N/A Rain Light Rain
7:30 AM 68.0 °F - 66.2 °F 94% 29.92 in 6.2 mi ENE 5.8 mph - N/A Rain Light Rain
8:00 AM 68.0 °F - 66.2 °F 94% 29.92 in 6.2 mi NE 4.6 mph - N/A   Partly Cloudy
8:30 AM 68.0 °F - 66.2 °F 94% 29.92 in 6.2 mi NE 5.8 mph - N/A   Scattered Clouds
9:00 AM 68.0 °F - 66.2 °F 94% 29.92 in 6.2 mi NE 6.9 mph - N/A   Scattered Clouds
9:30 AM 69.8 °F - 66.2 °F 88% 29.92 in 6.2 mi ENE 6.9 mph - N/A   Partly Cloudy
10:00 AM 71.6 °F - 66.2 °F 83% 29.92 in 6.2 mi NE 8.1 mph - N/A   Partly Cloudy
10:30 AM 75.2 °F - 66.2 °F 73% 29.95 in 6.2 mi ENE 9.2 mph - N/A   Partly Cloudy
11:00 AM 77.0 °F - 66.2 °F 69% 29.92 in 6.2 mi ENE 9.2 mph - N/A   Partly Cloudy
11:30 AM 77.0 °F - 66.2 °F 69% 29.95 in 6.2 mi ENE 9.2 mph - N/A   Partly Cloudy
12:00 PM 78.8 °F - 66.2 °F 65% 29.95 in 6.2 mi East 9.2 mph - N/A   Partly Cloudy
12:30 PM 78.8 °F - 66.2 °F 65% 29.95 in 6.2 mi ENE 6.9 mph - N/A   Partly Cloudy
1:00 PM 80.6 °F 82.7 °F 66.2 °F 61% 29.95 in 6.2 mi NE 6.9 mph - N/A   Scattered Clouds
1:30 PM 82.4 °F 84.6 °F 66.2 °F 58% 29.95 in 6.2 mi ENE 5.8 mph - N/A   Scattered Clouds
2:00 PM 82 °F - 66 °F 50% 29.96 in 19 mi SSW 13.8 mph - -   Scattered Clouds
2:00 PM 80.6 °F 83.2 °F 68.0 °F 65% 29.95 in 6.2 mi SW 12.7 mph - N/A   Scattered Clouds
2:30 PM 80.6 °F 82.7 °F 66.2 °F 61% 29.95 in 6.2 mi SSW 9.2 mph - N/A   Scattered Clouds
3:00 PM 82.4 °F 85.4 °F 68.0 °F 62% 29.95 in 6.2 mi SW 9.2 mph - N/A   Scattered Clouds
3:30 PM 80.6 °F 83.2 °F 68.0 °F 65% 29.95 in 6.2 mi SW 11.5 mph - N/A   Scattered Clouds
4:00 PM 80.6 °F 82.7 °F 66.2 °F 61% 29.95 in 6.2 mi SW 13.8 mph - N/A   Scattered Clouds
4:30 PM 80.6 °F 82.7 °F 66.2 °F 61% 29.95 in 6.2 mi SW 15.0 mph - N/A   Scattered Clouds
5:00 PM 80 °F - 64 °F 48% 29.95 in 16 mi SW 8.1 mph - -   Scattered Clouds
5:00 PM 80.6 °F 82.7 °F 66.2 °F 61% 29.95 in 6.2 mi SW 11.5 mph - N/A   Scattered Clouds
5:30 PM 78.8 °F - 64.4 °F 61% 29.95 in 6.2 mi WSW 6.9 mph - N/A   Scattered Clouds
6:00 PM 78.8 °F - 66.2 °F 65% 29.95 in 6.2 mi East 5.8 mph - N/A   Scattered Clouds
6:30 PM 78.8 °F - 66.2 °F 65% 29.95 in 6.2 mi East 4.6 mph - N/A   Partly Cloudy
7:00 PM 77.0 °F - 66.2 °F 69% 29.92 in 6.2 mi NE 8.1 mph - N/A   Partly Cloudy
7:30 PM 77.0 °F - 66.2 °F 69% 29.92 in 6.2 mi ENE 6.9 mph - N/A   Partly Cloudy
8:00 PM 76 °F - 66 °F 63% 29.94 in 19 mi ENE 8.1 mph - -   Scattered Clouds
8:00 PM 77.0 °F - 66.2 °F 69% 29.92 in 6.2 mi ENE 9.2 mph - N/A   Partly Cloudy
8:30 PM 75.2 °F - 66.2 °F 73% 29.92 in 6.2 mi ENE 5.8 mph - N/A   Partly Cloudy
9:00 PM 73.4 °F - 68.0 °F 83% 29.92 in 6.2 mi ENE 4.6 mph - N/A   Partly Cloudy
9:30 PM 71.6 °F - 68.0 °F 88% 29.95 in 6.2 mi NE 6.9 mph - N/A   Partly Cloudy
10:00 PM 73.4 °F - 68.0 °F 83% 29.95 in - ENE 3.5 mph - N/A   Clear
10:30 PM 71.6 °F - 68.0 °F 88% 29.98 in - ENE 4.6 mph - N/A   Clear
11:00 PM 71 °F - 67 °F 84% 29.98 in 19 mi ESE 4.5 mph - -   Clear
11:00 PM 71.6 °F - 68.0 °F 88% 29.98 in - Variable 1.2 mph - N/A   Clear
11:30 PM 71.6 °F - 68.0 °F 88% 29.98 in - Calm Calm - N/A   Clear